When you browse on this site, cookies collect data to enhance your experience and personalize the content and advertising you see.
Visit our Privacy Policy to learn more. By continuing to use the site, you agree to this use of cookies and data.
  • In Hungary
  • List of Countries
  • For 7 days
  • Water Temperature
  • Satellite Maps
  • Weather Map
  • News
  • Weather Widgets
  • user-avatar
    Login

    Hourly Weather Montclair

    Today, 18 July, Thursday

    Time Temperature Precipitation Wind Pressure Humidity
    00:00 +23°C° 0 mm 1 mps 729 mmHg 69%
    01:00 +22°C° 0 mm 1 mps 729 mmHg 72%
    02:00 +22°C° 0 mm 1 mps 729 mmHg 72%
    03:00 +22°C° 0 mm 1 mps 729 mmHg 73%
    04:00 +22°C° 0 mm 1 mps 729 mmHg 74%
    05:00 +23°C° 0 mm 1 mps 729 mmHg 69%
    06:00 +24°C° 0 mm 1 mps 730 mmHg 65%
    07:00 +25°C° 0 mm 2 mps 730 mmHg 61%
    08:00 +26°C° 0 mm 2 mps 730 mmHg 54%
    09:00 +28°C° 0 mm 2 mps 730 mmHg 48%
    10:00 +30°C° 0 mm 3 mps 730 mmHg 41%
    11:00 +31°C° 0 mm 3 mps 730 mmHg 37%
    12:00 +33°C° 0 mm 4 mps 729 mmHg 34%
    13:00 +34°C° 0 mm 4 mps 729 mmHg 30%
    14:00 +33°C° 0 mm 4 mps 729 mmHg 31%
    15:00 +33°C° 0 mm 4 mps 728 mmHg 32%
    16:00 +32°C° 0 mm 5 mps 728 mmHg 33%
    17:00 +29°C° 0 mm 4 mps 728 mmHg 38%
    18:00 +27°C° 0 mm 3 mps 728 mmHg 43%
    19:00 +25°C° 0 mm 3 mps 728 mmHg 49%
    20:00 +24°C° 0 mm 2 mps 728 mmHg 51%
    21:00 +23°C° 0 mm 2 mps 728 mmHg 54%
    22:00 +23°C° 0 mm 2 mps 729 mmHg 56%
    23:00 +22°C° 0 mm 1 mps 728 mmHg 57%

    Tomorrow, 19 July, Friday

    Time Temperature Precipitation Wind Pressure Humidity
    00:00 +22°C° 0 mm 1 mps 728 mmHg 58%
    01:00 +21°C° 0 mm 1 mps 728 mmHg 58%
    02:00 +21°C° 0 mm 1 mps 728 mmHg 59%
    03:00 +21°C° 0 mm 1 mps 728 mmHg 60%
    04:00 +21°C° 0 mm 1 mps 727 mmHg 61%
    05:00 +21°C° 0 mm 1 mps 728 mmHg 58%
    06:00 +22°C° 0 mm 1 mps 728 mmHg 55%
    07:00 +23°C° 0 mm 1 mps 728 mmHg 53%
    08:00 +25°C° 0 mm 2 mps 728 mmHg 47%
    09:00 +27°C° 0 mm 2 mps 729 mmHg 41%
    10:00 +29°C° 0 mm 2 mps 729 mmHg 36%
    11:00 +30°C° 0 mm 3 mps 728 mmHg 33%
    12:00 +32°C° 0 mm 4 mps 728 mmHg 30%
    13:00 +33°C° 0 mm 4 mps 728 mmHg 28%
    14:00 +32°C° 0 mm 4 mps 728 mmHg 30%
    15:00 +30°C° 0 mm 4 mps 727 mmHg 32%
    16:00 +30°C° 0 mm 4 mps 727 mmHg 34%
    17:00 +28°C° 0 mm 4 mps 727 mmHg 39%
    18:00 +26°C° 0 mm 3 mps 727 mmHg 44%
    19:00 +24°C° 0 mm 2 mps 727 mmHg 48%
    20:00 +24°C° 0 mm 2 mps 727 mmHg 51%
    21:00 +23°C° 0 mm 2 mps 727 mmHg 55%
    22:00 +22°C° 0 mm 1 mps 728 mmHg 58%
    23:00 +22°C° 0 mm 1 mps 728 mmHg 58%

    Day after tomorrow, 20 July, Saturday

    Time Temperature Precipitation Wind Pressure Humidity
    00:00 +21°C° 0 mm 1 mps 728 mmHg 59%
    01:00 +21°C° 0 mm 1 mps 727 mmHg 60%
    02:00 +21°C° 0 mm 1 mps 727 mmHg 60%
    03:00 +20°C° 0 mm 1 mps 727 mmHg 60%
    04:00 +20°C° 0 mm 1 mps 727 mmHg 61%
    05:00 +21°C° 0 mm 1 mps 728 mmHg 58%
    06:00 +22°C° 0 mm 1 mps 728 mmHg 55%
    07:00 +23°C° 0 mm 1 mps 729 mmHg 53%
    08:00 +25°C° 0 mm 2 mps 729 mmHg 48%
    09:00 +27°C° 0 mm 2 mps 729 mmHg 43%
    10:00 +28°C° 0 mm 2 mps 729 mmHg 38%
    11:00 +29°C° 0 mm 3 mps 729 mmHg 35%
    12:00 +31°C° 0 mm 3 mps 728 mmHg 31%
    13:00 +33°C° 0 mm 4 mps 728 mmHg 28%
    14:00 +33°C° 0 mm 4 mps 728 mmHg 29%
    15:00 +33°C° 0 mm 4 mps 727 mmHg 29%
    16:00 +32°C° 0 mm 4 mps 727 mmHg 29%
    17:00 +30°C° 0 mm 3 mps 727 mmHg 35%
    18:00 +28°C° 0 mm 3 mps 727 mmHg 41%
    19:00 +26°C° 0 mm 2 mps 727 mmHg 46%
    20:00 +25°C° 0 mm 2 mps 727 mmHg 47%
    21:00 +25°C° 0 mm 1 mps 727 mmHg 49%
    22:00 +24°C° 0 mm 1 mps 727 mmHg 50%
    23:00 +24°C° 0 mm 1 mps 727 mmHg 50%

    21 July, Sunday

    Time Temperature Precipitation Wind Pressure Humidity
    00:00 +24°C° 0 mm 1 mps 727 mmHg 50%
    01:00 +23°C° 0 mm 1 mps 727 mmHg 50%
    02:00 +23°C° 0 mm 1 mps 727 mmHg 50%
    03:00 +23°C° 0 mm 1 mps 727 mmHg 50%
    04:00 +23°C° 0 mm 1 mps 727 mmHg 50%
    05:00 +24°C° 0 mm 1 mps 728 mmHg 47%
    06:00 +25°C° 0 mm 1 mps 728 mmHg 44%
    07:00 +27°C° 0 mm 1 mps 728 mmHg 40%
    08:00 +29°C° 0 mm 1 mps 729 mmHg 36%
    09:00 +30°C° 0 mm 2 mps 729 mmHg 32%
    10:00 +32°C° 0 mm 2 mps 729 mmHg 27%
    11:00 +35°C° 0 mm 3 mps 729 mmHg 25%
    12:00 +36°C° 0 mm 3 mps 728 mmHg 22%
    13:00 +37°C° 0 mm 4 mps 728 mmHg 19%
    14:00 +37°C° 0 mm 4 mps 728 mmHg 20%
    15:00 +36°C° 0 mm 4 mps 728 mmHg 21%
    16:00 +36°C° 0 mm 4 mps 727 mmHg 22%
    17:00 +34°C° 0 mm 3 mps 727 mmHg 26%
    18:00 +31°C° 0 mm 3 mps 727 mmHg 30%
    19:00 +29°C° 0 mm 2 mps 727 mmHg 34%
    20:00 +28°C° 0 mm 2 mps 728 mmHg 36%
    21:00 +27°C° 0 mm 1 mps 728 mmHg 38%
    22:00 +27°C° 0 mm 1 mps 728 mmHg 40%
    23:00 +26°C° 0 mm 1 mps 728 mmHg 41%

    22 July, Monday

    Time Temperature Precipitation Wind Pressure Humidity
    00:00 +26°C° 0 mm 1 mps 728 mmHg 42%
    01:00 +26°C° 0 mm 1 mps 728 mmHg 43%
    02:00 +26°C° 0 mm 1 mps 728 mmHg 44%
    03:00 +25°C° 0 mm 1 mps 728 mmHg 44%
    04:00 +23°C° 0 mm 0 mps 729 mmHg 45%
    05:00 +26°C° 0 mm 1 mps 729 mmHg 42%
    06:00 +28°C° 0 mm 1 mps 729 mmHg 39%
    07:00 +29°C° 0 mm 1 mps 730 mmHg 36%
    08:00 +31°C° 0 mm 1 mps 730 mmHg 32%
    09:00 +32°C° 0 mm 2 mps 730 mmHg 28%
    10:00 +35°C° 0 mm 2 mps 730 mmHg 24%
    11:00 +36°C° 0 mm 3 mps 730 mmHg 23%
    12:00 +37°C° 0 mm 3 mps 730 mmHg 22%
    13:00 +38°C° 0 mm 4 mps 730 mmHg 21%
    14:00 +37°C° 0 mm 4 mps 729 mmHg 22%
    15:00 +37°C° 0 mm 4 mps 729 mmHg 23%
    16:00 +36°C° 0 mm 4 mps 729 mmHg 24%
    17:00 +35°C° 0 mm 3 mps 729 mmHg 28%
    18:00 +33°C° 0 mm 3 mps 729 mmHg 31%
    19:00 +30°C° 0 mm 2 mps 729 mmHg 35%
    20:00 +29°C° 0 mm 2 mps 730 mmHg 36%
    21:00 +29°C° 0 mm 1 mps 730 mmHg 37%
    22:00 +28°C° 0 mm 1 mps 730 mmHg 39%
    23:00 +28°C° 0 mm 1 mps 730 mmHg 39%

    23 July, Tuesday

    Time Temperature Precipitation Wind Pressure Humidity
    00:00 +26°C° 0 mm 0 mps 730 mmHg 39%
    01:00 +26°C° 0 mm 0 mps 730 mmHg 40%
    02:00 +26°C° 0 mm 0 mps 730 mmHg 40%
    03:00 +26°C° 0 mm 0 mps 730 mmHg 40%
    04:00 +28°C° 0 mm 1 mps 730 mmHg 41%
    05:00 +27°C° 0 mm 0 mps 730 mmHg 39%
    06:00 +28°C° 0 mm 0 mps 731 mmHg 37%
    07:00 +29°C° 0 mm 0 mps 731 mmHg 35%
    08:00 +32°C° 0 mm 1 mps 731 mmHg 32%
    09:00 +34°C° 0 mm 1 mps 731 mmHg 30%
    10:00 +37°C° 0 mm 2 mps 731 mmHg 27%
    11:00 +38°C° 0 mm 2 mps 731 mmHg 26%
    12:00 +38°C° 0 mm 3 mps 731 mmHg 25%
    13:00 +40°C° 0 mm 4 mps 731 mmHg 24%
    14:00 +38°C° 0.1 mm 4 mps 730 mmHg 26%
    15:00 +36°C° 0.1 mm 3 mps 730 mmHg 28%
    16:00 +34°C° 0.1 mm 3 mps 730 mmHg 31%
    17:00 +34°C° 0 mm 2 mps 730 mmHg 32%
    18:00 +32°C° 0 mm 2 mps 730 mmHg 33%
    19:00 +31°C° 0 mm 1 mps 730 mmHg 35%
    20:00 +30°C° 0 mm 1 mps 730 mmHg 38%
    21:00 +29°C° 0 mm 2 mps 731 mmHg 41%
    22:00 +28°C° 0 mm 2 mps 731 mmHg 44%
    23:00 +28°C° 0 mm 2 mps 731 mmHg 43%
    Show more